Weather History for KHSP - January, 2013

Change the Weather History Date:

Tuesday, January 22, 2013

  Actual Average (KLWB) Record (KLWB)
Temperature  
Mean Temperature 6 °F 29 °F  
Max Temperature 12 °F 39 °F 64 °F (1999)
Min Temperature 1 °F 18 °F -15 °F (1984)
Degree Days  
Heating Degree Days 58    
Month to date heating degree days  
Since 1 July heating degree days  
Cooling Degree Days 0    
Month to date cooling degree days  
Year to date cooling degree days  
Moisture  
Dew Point -6 °F    
Average Humidity 59    
Maximum Humidity 78    
Minimum Humidity 44    
Precipitation  
Precipitation 0.00 in - - ()
Snow  
Snow 0.00 in - - ()
Month to date snowfall  
Since 1 July snowfall  
Snow Depth -    
Sea Level Pressure  
Sea Level Pressure 29.92 in    
Wind  
Wind Speed 20 mph (WNW)    
Max Wind Speed 28 mph    
Max Gust Speed 41 mph    
Visibility 9 miles    
Events Snow    
T = Trace of Precipitation, MM = Missing Value Source: NWS Daily Summary

Daily Weather History Graph

Daily Weather History Graph

Search for Another Location

Airport or City:

Trip Planner

Search our weather history database for the weather conditions in past years. The results will help you decide how hot, cold, wet, or windy it might be!

Date:

Astronomy

Jan. 22, 2013 Rise Set
Actual Time 7:30 AM EST 5:31 PM EST
Civil Twilight 7:02 AM EST 6:00 PM EST
Nautical Twilight 6:30 AM EST 6:32 PM EST
Astronomical Twilight 5:59 AM EST 7:03 PM EST
Moon 1:54 PM EST (1/22) 3:50 AM EST (1/22)
Length of Visible Light 10h 57m
Length of Day
10h 01m
Waxing Gibbous, 82% of the Moon is Illuminated
Jan 22
Waxing Gibbous
Jan 26
Full
Feb 3
Last Quarter
Feb 10
New
Feb 17
First Quarter

Hourly Weather History & Observations

Time (EST) Temp. Windchill Dew Point Humidity Pressure Visibility Wind Dir Wind Speed Gust Speed Precip Events Conditions
12:15 AM 12.2 °F -8.6 °F 3.2 °F 67% 29.79 in - West 27.6 mph 40.3 mph N/A   Mostly Cloudy
12:35 AM 12.2 °F -6.7 °F 3.2 °F 67% 29.79 in - West 21.9 mph 41.4 mph N/A   Overcast
12:55 AM 12.2 °F -7.9 °F 1.4 °F 62% 29.79 in - West 25.3 mph 35.7 mph N/A Snow Light Snow
1:15 AM 10.4 °F -9.9 °F 1.4 °F 67% 29.79 in - West 24.2 mph 40.3 mph N/A   Mostly Cloudy
1:35 AM 10.4 °F -9.9 °F 1.4 °F 67% 29.80 in - West 24.2 mph 33.4 mph N/A   Mostly Cloudy
1:55 AM 10.4 °F -8.2 °F -0.4 °F 62% 29.81 in - West 19.6 mph 34.5 mph N/A   Mostly Cloudy
2:15 AM 8.6 °F -8.9 °F -0.4 °F 67% 29.81 in - West 16.1 mph 26.5 mph N/A   Mostly Cloudy
2:55 AM 8.6 °F -11.4 °F -0.4 °F 67% 29.82 in - West 21.9 mph 32.2 mph N/A   Mostly Cloudy
3:15 AM 6.8 °F -12.4 °F -0.4 °F 72% 29.82 in 10.0 mi WNW 18.4 mph 36.8 mph N/A   Scattered Clouds
3:35 AM 6.8 °F -11.8 °F -0.4 °F 72% 29.83 in 10.0 mi West 17.3 mph 28.8 mph N/A   Scattered Clouds
3:55 AM 6.8 °F -11.3 °F -0.4 °F 72% 29.83 in 10.0 mi West 16.1 mph 24.2 mph N/A   Mostly Cloudy
4:15 AM 6.8 °F -11.8 °F -2.2 °F 67% 29.82 in 10.0 mi West 17.3 mph 25.3 mph N/A   Overcast
4:35 AM 5.0 °F -14.7 °F -2.2 °F 72% 29.83 in 10.0 mi WNW 18.4 mph 28.8 mph N/A   Mostly Cloudy
4:55 AM 5.0 °F -15.7 °F -2.2 °F 72% 29.83 in 10.0 mi West 20.7 mph 31.1 mph N/A   Scattered Clouds
5:15 AM 5.0 °F -14.7 °F -4.0 °F 66% 29.84 in 10.0 mi WNW 18.4 mph 32.2 mph N/A   Scattered Clouds
5:35 AM 3.2 °F -15.9 °F -2.2 °F 78% 29.85 in 10.0 mi WNW 16.1 mph 25.3 mph N/A   Mostly Cloudy
5:55 AM 3.2 °F -15.9 °F -2.2 °F 78% 29.86 in 10.0 mi WNW 16.1 mph 26.5 mph N/A   Scattered Clouds
6:15 AM 3.2 °F -15.3 °F -2.2 °F 78% 29.86 in 10.0 mi WNW 15.0 mph 24.2 mph N/A   Mostly Cloudy
6:35 AM 3.2 °F -18.1 °F -4.0 °F 72% 29.87 in 10.0 mi WNW 20.7 mph 31.1 mph N/A   Scattered Clouds
6:55 AM 1.4 °F -19.9 °F -5.8 °F 72% 29.87 in 10.0 mi WNW 19.6 mph 33.4 mph N/A   Scattered Clouds
7:15 AM 1.4 °F -19.9 °F -7.6 °F 66% 29.88 in - WNW 19.6 mph 34.5 mph N/A   Scattered Clouds
7:35 AM 1.4 °F -21.4 °F -7.6 °F 66% 29.88 in - West 23.0 mph 33.4 mph N/A   Clear
7:55 AM 1.4 °F -20.5 °F -7.6 °F 66% 29.89 in - WNW 20.7 mph 28.8 mph N/A   Clear
8:15 AM 1.4 °F -19.4 °F -7.6 °F 66% 29.90 in - WNW 18.4 mph 31.1 mph N/A Snow Light Snow
8:35 AM 1.4 °F -20.5 °F -7.6 °F 66% 29.90 in - WNW 20.7 mph 32.2 mph N/A   Clear
8:55 AM 1.4 °F -21.0 °F -7.6 °F 66% 29.91 in - WNW 21.9 mph 34.5 mph N/A   Clear
9:15 AM 1.4 °F -19.4 °F -7.6 °F 66% 29.92 in - West 18.4 mph 28.8 mph N/A   Clear
9:35 AM 3.2 °F -17.6 °F -7.6 °F 61% 29.94 in - West 19.6 mph 27.6 mph N/A   Clear
9:55 AM 3.2 °F -17.1 °F -7.6 °F 61% 29.95 in - West 18.4 mph 27.6 mph N/A   Clear
10:15 AM 5.0 °F -14.7 °F -7.6 °F 56% 29.95 in 10.0 mi West 18.4 mph 28.8 mph N/A   Clear
10:35 AM 5.0 °F -15.7 °F -7.6 °F 56% 29.96 in - WNW 20.7 mph 26.5 mph N/A   Clear
10:55 AM 6.8 °F -10.7 °F -9.4 °F 48% 29.97 in - WNW 15.0 mph 25.3 mph N/A   Clear
11:15 AM 6.8 °F -13.4 °F -9.4 °F 48% 29.97 in - West 20.7 mph 27.6 mph N/A   Clear
11:35 AM 6.8 °F -11.8 °F -9.4 °F 48% 29.96 in 10.0 mi WNW 17.3 mph 24.2 mph N/A   Clear
11:55 AM 6.8 °F -13.8 °F -9.4 °F 48% 29.96 in - West 21.9 mph 27.6 mph N/A   Clear
12:15 PM 6.8 °F -13.4 °F -9.4 °F 48% 29.95 in 2.5 mi West 20.7 mph 27.6 mph N/A   Haze
12:35 PM 8.6 °F -9.5 °F -7.6 °F 48% 29.95 in 10.0 mi West 17.3 mph 24.2 mph N/A   Clear
12:55 PM 8.6 °F -10.0 °F -7.6 °F 48% 29.94 in 10.0 mi West 18.4 mph 27.6 mph N/A   Clear
1:15 PM 8.6 °F -11.0 °F -7.6 °F 48% 29.93 in 2.5 mi West 20.7 mph 31.1 mph N/A   Haze
1:35 PM 8.6 °F -9.5 °F -7.6 °F 48% 29.93 in 0.5 mi West 17.3 mph 27.6 mph N/A   Haze
1:55 PM 10.4 °F -8.6 °F -7.6 °F 44% 29.93 in 1.5 mi West 20.7 mph 26.5 mph N/A   Haze
2:15 PM 10.4 °F -7.2 °F -7.6 °F 44% 29.93 in 10.0 mi WNW 17.3 mph 23.0 mph N/A   Clear
2:35 PM 10.4 °F -6.0 °F -7.6 °F 44% 29.94 in 2.5 mi West 15.0 mph 25.3 mph N/A   Haze
2:55 PM 10.4 °F -8.2 °F -5.8 °F 48% 29.94 in 10.0 mi West 19.6 mph 26.5 mph N/A   Clear
3:15 PM 10.4 °F -8.2 °F -7.6 °F 44% 29.95 in 10.0 mi West 19.6 mph 29.9 mph N/A   Clear
3:35 PM 10.4 °F -7.2 °F -7.6 °F 44% 29.95 in 10.0 mi West 17.3 mph 26.5 mph N/A   Clear
3:55 PM 8.6 °F -8.9 °F -7.6 °F 48% 29.95 in 10.0 mi West 16.1 mph 28.8 mph N/A   Clear
4:15 PM 10.4 °F -7.2 °F -7.6 °F 44% 29.95 in 10.0 mi West 17.3 mph 24.2 mph N/A   Clear
4:35 PM 8.6 °F -8.3 °F -7.6 °F 48% 29.96 in 10.0 mi West 15.0 mph 23.0 mph N/A   Clear
4:55 PM 8.6 °F -9.5 °F -7.6 °F 48% 29.96 in 10.0 mi West 17.3 mph 25.3 mph N/A   Clear
5:15 PM 8.6 °F -8.3 °F -7.6 °F 48% 29.97 in 10.0 mi West 15.0 mph 24.2 mph N/A   Clear
5:35 PM 6.8 °F -9.3 °F -7.6 °F 52% 29.98 in 10.0 mi West 12.7 mph 23.0 mph N/A   Clear
5:55 PM 6.8 °F -10.7 °F -7.6 °F 52% 29.98 in 10.0 mi West 15.0 mph 23.0 mph N/A   Clear
6:15 PM 6.8 °F -10.0 °F -7.6 °F 52% 29.99 in 10.0 mi West 13.8 mph 24.2 mph N/A   Clear
6:35 PM 6.8 °F -10.7 °F -7.6 °F 52% 29.99 in 10.0 mi West 15.0 mph 21.9 mph N/A   Clear
6:55 PM 6.8 °F -11.3 °F -7.6 °F 52% 29.99 in 10.0 mi West 16.1 mph 23.0 mph N/A   Clear
7:15 PM 6.8 °F -10.0 °F -7.6 °F 52% 29.99 in 10.0 mi West 13.8 mph 19.6 mph N/A   Clear
7:35 PM 6.8 °F -11.8 °F -7.6 °F 52% 29.99 in 10.0 mi West 17.3 mph 24.2 mph N/A   Clear
7:55 PM 6.8 °F -12.9 °F -7.6 °F 52% 29.99 in - West 19.6 mph 24.2 mph N/A   Clear
8:15 PM 5.0 °F -12.3 °F -7.6 °F 56% 29.99 in - West 13.8 mph 21.9 mph N/A   Clear
8:35 PM 5.0 °F -13.0 °F -7.6 °F 56% 29.99 in - West 15.0 mph 27.6 mph N/A   Clear
8:55 PM 5.0 °F -13.0 °F -5.8 °F 61% 29.99 in - West 15.0 mph 20.7 mph N/A   Clear
9:15 PM 5.0 °F -14.2 °F -7.6 °F 56% 29.99 in - WNW 17.3 mph 25.3 mph N/A   Clear
9:35 PM 5.0 °F -17.1 °F -5.8 °F 61% 29.99 in - West 24.2 mph 28.8 mph N/A   Clear
9:55 PM 5.0 °F -15.2 °F -5.8 °F 61% 29.99 in - West 19.6 mph 34.5 mph N/A   Clear
10:15 PM 5.0 °F -15.2 °F -5.8 °F 61% 29.99 in - WNW 19.6 mph 28.8 mph N/A   Clear
10:35 PM 5.0 °F -15.2 °F -5.8 °F 61% 29.99 in - WNW 19.6 mph 26.5 mph N/A   Clear
10:55 PM 5.0 °F -13.0 °F -5.8 °F 61% 29.99 in - WNW 15.0 mph 25.3 mph N/A   Clear
11:15 PM 3.2 °F -17.1 °F -5.8 °F 66% 29.99 in - West 18.4 mph 24.2 mph N/A   Clear
11:35 PM 3.2 °F -17.1 °F -5.8 °F 66% 29.99 in - West 18.4 mph 27.6 mph N/A   Clear
11:55 PM 3.2 °F -16.5 °F -5.8 °F 66% 30.00 in - West 17.3 mph 25.3 mph N/A   Clear